Home   Weather   Santa Rosa   Past weeks
Flag for USA

Past Weather in Santa Rosa, California, USA — October 2017

Now
78 °F

Scattered clouds.


Feels Like: 79 °F
Forecast: 80 / 54 °F
Wind: 12 mph from Southeast

Location: Santa Rosa Sonoma County Airport

Current Time: Jul 18, 2019 at 4:53:21 pm

Latest Report: Jul 18, 2019 at 3:53 pm


Visibility: 10 mi

Pressure: 29.84 "Hg

Humidity: 48%

Dew Point: 57 °F

Location of Santa RosaLocation

October 2017 Weather in Santa Rosa — Graph

°F

High & Low Weather Summary for October 2017

 TemperatureHumidityPressure
High93 °F (Oct 25, 3:53 pm)100% (Oct 11, 6:43 am)30.36 "Hg (Oct 11, 6:43 am)
Low37 °F (Oct 11, 7:53 am)4% (Oct 8, 2:53 pm)29.71 "Hg (Oct 3, 4:53 am)
Average59 °F62%29.97 "Hg
* Reported Oct 1 12:53 am — Oct 31 11:53 pm, Santa Rosa. Weather by CustomWeather, © 2019

Note: Actual official high and low records may vary slightly from our data, if they occured in-between our weather recording intervals... More about our weather records

Advertising

Santa Rosa Weather History for October 1, 2017

Scroll right to see more
 ConditionsComfort  
Time TempWeatherWind HumidityBarometerVisibility
12:53 am
Sun, Oct 1
60 °FClear.7 mph52%29.91 "Hg10 mi
1:53 am61 °FClear.7 mph48%29.92 "Hg10 mi
2:53 am61 °FClear.10 mph48%29.91 "Hg10 mi
3:53 am59 °FClear.8 mph49%29.91 "Hg10 mi
4:53 am56 °FClear.6 mph58%29.93 "Hg10 mi
5:53 am54 °FClear.8 mph62%29.92 "Hg10 mi
6:53 am51 °FClear.3 mph69%29.93 "Hg10 mi
7:53 am56 °FPassing clouds.7 mph60%29.95 "Hg10 mi
8:53 am65 °FSunny.6 mph40%29.94 "Hg10 mi
9:53 am69 °FSunny.9 mph33%29.94 "Hg10 mi
10:53 am73 °FSunny.8 mph27%29.93 "Hg10 mi
11:53 am77 °FScattered clouds.8 mph24%29.92 "Hg10 mi
12:53 pm80 °FPassing clouds.5 mph17%29.89 "Hg10 mi
1:53 pm81 °FSunny.No wind17%29.85 "Hg10 mi
2:53 pm85 °FSunny.5 mph16%29.81 "Hg10 mi
3:53 pm81 °FSunny.9 mph19%29.80 "Hg10 mi
4:53 pm81 °FSunny.5 mph19%29.78 "Hg10 mi
5:53 pm77 °FSunny.12 mph22%29.78 "Hg10 mi
6:53 pm70 °FSunny.8 mph31%29.80 "Hg10 mi
7:53 pm66 °FClear.8 mph40%29.81 "Hg10 mi
8:53 pm65 °FClear.9 mph44%29.83 "Hg10 mi
9:53 pm63 °FClear.9 mph48%29.83 "Hg10 mi
10:53 pm60 °FClear.7 mph56%29.83 "Hg10 mi
11:53 pm58 °FClear.9 mph58%29.84 "Hg10 mi
Weather by CustomWeather, © 2019

See weather overview